This is the latest recevied weather packets stored in our database for station/object N4RCT. If no packets are shown the sender has not sent any weather packets the latest 10 day(s).
| Time | Temp. | Humidity | Pressure | Rain* | Wind** | Luminosity | Snow |
|---|---|---|---|---|---|---|---|
| 1777681053 | 15.56° C | 84% | 1012 hPa | 0 mm | - | 0 W/m² | - |
| 1777680752 | 15.56° C | 84% | 1012.1 hPa | 0 mm | - | 0 W/m² | - |
| 1777680449 | 15.56° C | 82% | 1011.9 hPa | 0 mm | - | 2 W/m² | - |
| 1777680147 | 15.56° C | 83% | 1012.1 hPa | 0 mm | - | 4 W/m² | - |
| 1777679842 | 15.56° C | 82% | 1011.9 hPa | 0 mm | - | 5 W/m² | - |
| 1777679538 | 16.11° C | 81% | 1012.1 hPa | 0 mm | - | 6 W/m² | - |
| 1777679234 | 16.11° C | 80% | 1011.9 hPa | 0 mm | - | 8 W/m² | - |
| 1777678931 | 16.11° C | 79% | 1011.9 hPa | 0 mm | - | 11 W/m² | - |
| 1777678629 | 16.11° C | 77% | 1011.7 hPa | 0 mm | - | 16 W/m² | - |
| 1777678326 | 16.67° C | 80% | 1011.7 hPa | 0 mm | - | 18 W/m² | - |
| 1777678022 | 16.67° C | 81% | 1011.7 hPa | 0 mm | - | 19 W/m² | - |
| 1777677719 | 16.67° C | 80% | 1012 hPa | 0 mm | - | 23 W/m² | - |
| 1777677417 | 16.67° C | 80% | 1011.8 hPa | 0 mm | - | 24 W/m² | - |
| 1777677115 | 16.67° C | 80% | 1011.9 hPa | 0 mm | - | 24 W/m² | - |
| 1777676813 | 16.67° C | 75% | 1012 hPa | 0 mm | - | 29 W/m² | - |
| 1777676511 | 17.22° C | 72% | 1011.9 hPa | 0 mm | - | 32 W/m² | - |
| 1777676209 | 17.78° C | 72% | 1011.9 hPa | 0 mm | - | 44 W/m² | - |
| 1777675905 | 17.78° C | 70% | 1012 hPa | 0 mm | - | 51 W/m² | - |
| 1777675601 | 17.78° C | 71% | 1012.1 hPa | 0 mm | - | 49 W/m² | - |
| 1777675299 | 17.78° C | 72% | 1012 hPa | 0 mm | - | 56 W/m² | - |
| 1777674995 | 18.33° C | 69% | 1011.5 hPa | 0 mm | - | 77 W/m² | - |
| 1777674692 | 18.33° C | 70% | 1011.4 hPa | 0 mm | - | 85 W/m² | - |
| 1777674389 | 18.33° C | 66% | 1011.5 hPa | 0 mm | - | 84 W/m² | - |
| 1777674086 | 18.33° C | 66% | 1011.4 hPa | 0 mm | - | 90 W/m² | - |
| 1777673782 | 18.33° C | 68% | 1011.4 hPa | 0 mm | - | 109 W/m² | - |
* Rain latest hour (hover to see other rain measurements)
** Current wind speed in m/s (hover to see current wind gust speed)